sat.trackr.live / text

‹ back to catalog

STARLINK-32033

NORAD 60144 · 2024-120K

PAYLOAD ACTIVE UNKNOWN

§ Identity

Operator
Country
US
Launch date
2024-06-27
Launch site
AFETR
Launch vehicle
Mass (kg)
RCS (m²)

Purposes: comms

External: N2YO · Heavens-Above · Gunter

§ Orbital elements

Epoch: 2026-09-21T20:33:32.693760Z

Period
93.85 min
Inclination
53.1589°
Eccentricity
0.0001230
Mean motion
15.34389626 rev/d
Perigee alt
461.9 km
Apogee alt
463.6 km
Semi-major
6,840.9 km
B*
1.3313e-5
RAAN
125.6742°
Arg perigee
97.0571°
Mean anomaly
263.0572°
Rev number
12,645

§ Raw data

STARLINK-320331 60144U 24120K   26264.85662840  .00000073  00000+0  13313-4 0  99972 60144  53.1589 125.6742 0001230  97.0571 263.0572 15.34389626126450

JSON: /api/v1/satellites/60144 · /tle

For live sub-satellite position, see the globe view (requires WebGL).

§ Visibility from observer

Set your observer location to see the next 7 days of passes ≥ 10°. The values pass through the URL so the page stays shareable.

No JS? Fill the form by hand. The geolocation button needs JavaScript.